Location: Zagreb
(45.8000°N, 16.0000°E)
Time: 08:09:47
(UTC+02:00)

Courier 1B Rocket - Pass Details

Date: 12 August 2022
Orbit: 920 x 1202 km, 28.2° (Epoch: 25 September)

Event Time Altitude Azimuth Distance (km) Brightness Sun altitude
Rises 19:16:12 0° 239° (WSW) 3,572 8.7 8.0°
Reaches altitude 10° 19:19:53 10° 218° (SW) 2,660 7.7 7.4°
Maximum altitude 19:23:31 16° 183° (S) 2,310 6.9 6.7°
Drops below altitude 10° 19:27:14 10° 149° (SSE) 2,750 7.0 6.1°
Sets 19:31:09 0° 128° (SE) 3,760 7.5 5.5°
